weather.gov     
National Weather Service

Terminal Aerodrome Forecast
NWS Homepage
This page is being discontinued on March 12, 2014.
The same data is available at this site. Please update your bookmarks.
Thank you, and we apologize for the inconvenience.
Please send an email to SR-SRH.Webmaster@noaa.gov with any concerns.


Current Version
Previous Version:    01  02  03  04  05  06  07  08  09  10  11  12  13  14  15  16  17  18  19  20  21  22  23  24  25  26  27  28  29  30  
   31  32  33  34  35  36  37  38  39  40  41  42  43  44  45  46  47  48  49  50  51  52  53  54  55  56  57  
[Printable]
039
FTUS41 KBUF 222300
TAFJHW
TAF
KJHW 222336Z 2300/2324 21018KT 6SM -RA OVC003 WS020/24045KT
     FM230500 21018KT 6SM -RA OVC007 WS020/24045KT
     FM230600 21017KT 6SM -RA OVC020 WS020/24040KT
     FM230800 22015KT P6SM VCSH OVC007 WS020/24040KT
     FM231000 21013KT P6SM OVC003 WS020/25035KT
     FM231200 20011KT P6SM OVC003
     FM231800 18012KT P6SM BKN050
     FM232000 18013KT P6SM BKN080
      AMD LTD TO CLD VIS AND WIND=


U.S. Dept. of Commerce
NOAA National Weather Service
1325 East West Highway
Silver Spring, MD 20910
E-mail: w-nws.webmaster@noaa.gov
Page last modified: May 16, 2007
NATIONAL WEATHER SERVICE: for Safety, for Work, for Fun - FOR LIFE